Location: Batang Balui
(2.7000°N, 113.7833°E)
Time: 23:47:12
(UTC+00:00)

CZ-4 DEB - Pass Details

Date: 07 December 2023
Orbit: 686 x 830 km, 98.7° (Epoch: 03 March)

Event Time Altitude Azimuth Distance (km) Brightness Sun altitude
Rises 11:43:05 0° 153° (SSE) 3,200 ? -21.1°
Reaches altitude 10° 11:45:32 10° 146° (SE) 2,250 ? -21.6°
Enters shadow 11:47:23 21° 134° (SE) 1,604 ? -22.0°
